Glenwood, MN

4:50 AM CDT on May 23, 2017 (GMT -0500)
Glenwood Municipal

Weather History for KGHW - March, 2014

Change the Weather History Date:

Friday, March 7, 2014

  Actual Average Record
Temperature  
Mean Temperature 20 °F -  
Max Temperature 30 °F 35 °F 72 °F (1987)
Min Temperature 10 °F 10 °F -22 °F (1967)
Degree Days  
Heating Degree Days 45    
Moisture  
Dew Point 18 °F    
Average Humidity 86    
Maximum Humidity 100    
Minimum Humidity 74    
Precipitation  
Precipitation 0.03 in - - ()
Sea Level Pressure  
Sea Level Pressure 29.96 in    
Wind  
Wind Speed 11 mph (NW)    
Max Wind Speed 26 mph    
Max Gust Speed 34 mph    
Visibility 7 miles    
Events      
Averages and records for this station are not official NWS values.
T = Trace of Precipitation, MM = Missing Value Source: NWS Daily Summary

Daily Weather History Graph

Daily Weather History Graph

Search for Another Location

Airport or City:

Trip Planner

Search our weather history database for the weather conditions in past years. The results will help you decide how hot, cold, wet, or windy it might be!

Date:

Astronomy

Mar. 07, 2014 Rise Set
Actual Time 6:48 AM CST 6:16 PM CST
Civil Twilight 6:19 AM CST 6:46 PM CST
Nautical Twilight 5:44 AM CST 7:20 PM CST
Astronomical Twilight 5:10 AM CST 7:55 PM CST
Moon 10:24 AM CST (3/7) 12:40 AM CST (3/7)
Length of Visible Light 12h 26m
Length of Day
11h 27m
Waxing Crescent, 42% of the Moon is Illuminated
Mar 7
Waxing Crescent
Mar 8
First Quarter
Mar 16
Full
Mar 23
Last Quarter
Mar 30
New

Hourly Weather History & Observations

Time (CST) Temp. Windchill Dew Point Humidity Pressure Visibility Wind Dir Wind Speed Gust Speed Precip Events Conditions
12:13 AM 26.6 °F 21.2 °F 24.8 °F 93% 29.73 in 3.0 mi SSE 4.6 mph - N/A   Clear
12:33 AM 26.6 °F 21.2 °F 24.8 °F 93% 29.72 in 3.0 mi South 4.6 mph - N/A   Clear
12:53 AM 26.6 °F 22.6 °F 24.8 °F 93% 29.72 in 3.0 mi South 3.5 mph - N/A   Clear
1:14 AM 26.6 °F - 24.8 °F 93% 29.71 in 3.0 mi Calm Calm - N/A   Clear
1:33 AM 26.6 °F - 24.8 °F 93% 29.72 in 3.0 mi Calm Calm - N/A   Clear
1:53 AM 26.6 °F - 24.8 °F 93% 29.73 in 3.0 mi Calm Calm - N/A   Clear
2:14 AM 26.6 °F 22.6 °F 24.8 °F 93% 29.73 in 3.0 mi SSE 3.5 mph - N/A   Mist
2:33 AM 26.6 °F 22.6 °F 24.8 °F 93% 29.73 in 3.0 mi SSW 3.5 mph - N/A   Mist
2:53 AM 26.6 °F 22.6 °F 24.8 °F 93% 29.73 in 3.0 mi SSW 3.5 mph - N/A   Mist
3:13 AM 26.6 °F - 24.8 °F 93% 29.73 in 3.0 mi Calm Calm - N/A   Unknown
3:33 AM 26.6 °F 22.6 °F 26.6 °F 100% 29.73 in 3.0 mi WSW 3.5 mph - N/A   Clear
3:53 AM 28.4 °F 22.2 °F 26.6 °F 93% 29.74 in 2.5 mi West 5.8 mph - 0.01 in   Mostly Cloudy
4:13 AM 30.2 °F 22.6 °F 28.4 °F 93% 29.75 in 3.0 mi West 8.1 mph - 0.01 in   Scattered Clouds
4:33 AM 30.2 °F 21.9 °F 28.4 °F 93% 29.74 in 2.5 mi WNW 9.2 mph - 0.02 in   Unknown
4:53 AM 30.2 °F 18.9 °F 28.4 °F 93% 29.74 in 2.5 mi WNW 16.1 mph - 0.02 in   Scattered Clouds
5:13 AM 30.2 °F 20.2 °F 30.2 °F 100% 29.74 in 1.2 mi NW 12.7 mph - N/A   Overcast
5:34 AM 30.2 °F 17.8 °F 28.4 °F 93% 29.76 in 0.8 mi NW 19.6 mph 25.3 mph N/A   Overcast
5:53 AM 28.4 °F 15.8 °F 28.4 °F 100% 29.77 in 1.5 mi NNW 18.4 mph 24.2 mph N/A   Overcast
6:13 AM 28.4 °F 16.2 °F 26.6 °F 93% 29.80 in 5.0 mi NW 17.3 mph 26.5 mph N/A   Scattered Clouds
6:33 AM 26.6 °F 13.8 °F 24.8 °F 93% 29.82 in 3.0 mi NW 17.3 mph - N/A   Mist
6:53 AM 26.6 °F 14.3 °F 23.0 °F 86% 29.84 in 5.0 mi NW 16.1 mph - N/A   Clear
7:14 AM 24.8 °F 11.9 °F 21.2 °F 86% 29.85 in 4.0 mi NW 16.1 mph 26.5 mph N/A   Clear
7:33 AM 23.0 °F 8.7 °F 21.2 °F 93% 29.86 in 4.0 mi NW 18.4 mph 26.5 mph N/A   Scattered Clouds
7:53 AM 23.0 °F 8.0 °F 19.4 °F 86% 29.87 in 5.0 mi NW 20.7 mph - N/A   Mostly Cloudy
8:13 AM 21.2 °F 4.9 °F 17.6 °F 86% 29.88 in 5.0 mi NNW 23.0 mph 29.9 mph N/A   Overcast
8:33 AM 21.2 °F 6.0 °F 19.4 °F 93% 29.89 in 5.0 mi NW 19.6 mph - N/A   Overcast
8:53 AM 21.2 °F 6.0 °F 17.6 °F 86% 29.89 in 5.0 mi NW 19.6 mph 24.2 mph N/A   Scattered Clouds
9:13 AM 21.2 °F 6.0 °F 17.6 °F 86% 29.91 in 7.0 mi NNW 19.6 mph 34.5 mph N/A   Mostly Cloudy
9:33 AM 21.2 °F 6.0 °F 17.6 °F 86% 29.92 in 5.0 mi NW 19.6 mph 27.6 mph N/A   Overcast
9:53 AM 21.2 °F 5.6 °F 17.6 °F 86% 29.94 in 7.0 mi NNW 20.7 mph - N/A   Overcast
10:13 AM 19.4 °F 4.1 °F 15.8 °F 86% 29.94 in 7.0 mi NW 18.4 mph 25.3 mph N/A   Overcast
10:33 AM 19.4 °F 4.1 °F 15.8 °F 86% 29.95 in 7.0 mi NW 18.4 mph 24.2 mph N/A   Mostly Cloudy
10:53 AM 19.4 °F 2.8 °F 15.8 °F 86% 29.95 in 10.0 mi NW 21.9 mph 27.6 mph N/A   Scattered Clouds
11:13 AM 19.4 °F 3.6 °F 15.8 °F 86% 29.95 in 10.0 mi NNW 19.6 mph 27.6 mph N/A   Scattered Clouds
11:33 AM 21.2 °F 6.4 °F 15.8 °F 80% 29.97 in 10.0 mi NNW 18.4 mph - N/A   Overcast
11:53 AM 21.2 °F 4.5 °F 15.8 °F 80% 29.97 in 10.0 mi NNW 24.2 mph 31.1 mph N/A   Mostly Cloudy
12:13 PM 21.2 °F 4.9 °F 15.8 °F 80% 29.97 in 10.0 mi NNW 23.0 mph 27.6 mph N/A   Scattered Clouds
12:33 PM 21.2 °F 5.6 °F 15.8 °F 80% 29.98 in 10.0 mi NNW 20.7 mph 29.9 mph N/A   Scattered Clouds
12:53 PM 21.2 °F 4.9 °F 15.8 °F 80% 29.98 in 10.0 mi NNW 23.0 mph - N/A   Scattered Clouds
1:13 PM 21.2 °F 5.6 °F 15.8 °F 80% 29.99 in 10.0 mi NNW 20.7 mph - N/A   Clear
1:34 PM 23.0 °F 6.3 °F 15.8 °F 74% 29.99 in 10.0 mi NW 26.5 mph 29.9 mph N/A   Clear
1:53 PM 23.0 °F 7.6 °F 15.8 °F 74% 30.00 in 10.0 mi NNW 21.9 mph 25.3 mph N/A   Clear
2:13 PM 23.0 °F 7.6 °F 15.8 °F 74% 30.01 in 10.0 mi NNW 21.9 mph 27.6 mph N/A   Scattered Clouds
2:33 PM 21.2 °F 6.0 °F 15.8 °F 80% 30.01 in 10.0 mi NNW 19.6 mph - N/A   Scattered Clouds
2:53 PM 23.0 °F 8.3 °F 15.8 °F 74% 30.02 in 10.0 mi NNW 19.6 mph 24.2 mph N/A   Scattered Clouds
3:13 PM 21.2 °F 6.4 °F 15.8 °F 80% 30.03 in 10.0 mi NNW 18.4 mph 24.2 mph N/A   Mostly Cloudy
3:33 PM 23.0 °F 8.7 °F 15.8 °F 74% 30.04 in 10.0 mi NW 18.4 mph - N/A   Scattered Clouds
3:53 PM 23.0 °F 9.6 °F 15.8 °F 74% 30.04 in 10.0 mi NW 16.1 mph - N/A   Clear
4:14 PM 21.2 °F 7.8 °F 15.8 °F 80% 30.06 in 10.0 mi NW 15.0 mph - N/A   Clear
4:33 PM 21.2 °F 6.8 °F 15.8 °F 80% 30.07 in 10.0 mi NNW 17.3 mph - N/A   Clear
4:53 PM 21.2 °F 6.8 °F 15.8 °F 80% 30.08 in 10.0 mi NW 17.3 mph - N/A   Clear
5:13 PM 21.2 °F 6.0 °F 15.8 °F 80% 30.08 in 10.0 mi NW 19.6 mph - N/A   Clear
5:34 PM 21.2 °F 6.8 °F 15.8 °F 80% 30.09 in 10.0 mi NW 17.3 mph - N/A   Clear
5:53 PM 21.2 °F 7.3 °F 14.0 °F 74% 30.10 in 10.0 mi NNW 16.1 mph - N/A   Clear
6:13 PM 19.4 °F 7.2 °F 14.0 °F 80% 30.11 in 10.0 mi NNW 11.5 mph - N/A   Clear
6:33 PM 19.4 °F 6.6 °F 14.0 °F 80% 30.13 in 10.0 mi NW 12.7 mph 16.1 mph N/A   Clear
6:53 PM 19.4 °F 6.0 °F 12.2 °F 74% 30.14 in 10.0 mi NNW 13.8 mph - N/A   Clear
7:14 PM 17.6 °F 4.3 °F 12.2 °F 79% 30.15 in 10.0 mi NW 12.7 mph - N/A   Clear
7:33 PM 17.6 °F 3.7 °F 12.2 °F 79% 30.16 in 10.0 mi NNW 13.8 mph - N/A   Clear
7:53 PM 17.6 °F 4.3 °F 12.2 °F 79% 30.16 in 10.0 mi NNW 12.7 mph - N/A   Clear
8:14 PM 15.8 °F 1.4 °F 12.2 °F 86% 30.17 in 10.0 mi NNW 13.8 mph - N/A   Clear
8:33 PM 15.8 °F 2.1 °F 12.2 °F 86% 30.17 in 10.0 mi NNW 12.7 mph - N/A   Clear
8:53 PM 15.8 °F 2.1 °F 12.2 °F 86% 30.18 in 10.0 mi NNW 12.7 mph - N/A   Clear
9:13 PM 15.8 °F 2.1 °F 12.2 °F 86% 30.18 in 10.0 mi NNW 12.7 mph - N/A   Clear
9:33 PM 15.8 °F 2.1 °F 10.4 °F 79% 30.18 in 10.0 mi NNW 12.7 mph - N/A   Clear
9:53 PM 14.0 °F 0.5 °F 10.4 °F 86% 30.19 in 10.0 mi NNW 11.5 mph - N/A   Clear
10:13 PM 14.0 °F 2.0 °F 10.4 °F 86% 30.21 in 10.0 mi NNW 9.2 mph - N/A   Clear
10:34 PM 12.2 °F 0.7 °F 10.4 °F 92% 30.21 in 10.0 mi NNW 8.1 mph - N/A   Clear
10:53 PM 12.2 °F 2.9 °F 8.6 °F 85% 30.21 in 10.0 mi NNW 5.8 mph - N/A   Clear
11:13 PM 12.2 °F 4.3 °F 8.6 °F 85% 30.22 in 10.0 mi NNW 4.6 mph - N/A   Clear
11:33 PM 10.4 °F 0.8 °F 8.6 °F 92% 30.23 in 10.0 mi NNW 5.8 mph - N/A   Clear
11:53 PM 10.4 °F 2.2 °F 8.6 °F 92% 30.23 in 10.0 mi NNW 4.6 mph - N/A   Clear